sat.trackr.live / text

‹ back to catalog

STARLINK-6088

NORAD 56098 · 2023-046F

PAYLOAD ACTIVE UNKNOWN

§ Identity

Operator
Country
US
Launch date
2023-03-29
Launch site
AFETR
Launch vehicle
Mass (kg)
RCS (m²)

Purposes: comms

External: N2YO · Heavens-Above · Gunter

§ Orbital elements

Epoch: 2026-09-20T22:18:25.721568Z

Period
94.27 min
Inclination
43.0024°
Eccentricity
0.0001504
Mean motion
15.27577257 rev/d
Perigee alt
482.0 km
Apogee alt
484.1 km
Semi-major
6,861.2 km
B*
2.4880e-5
RAAN
138.7198°
Arg perigee
264.4513°
Mean anomaly
95.6167°
Rev number
19,188

§ Raw data

STARLINK-60881 56098U 23046F   26263.92946437  .00000422  00000+0  24880-4 0  99992 56098  43.0024 138.7198 0001504 264.4513  95.6167 15.27577257191884

JSON: /api/v1/satellites/56098 · /tle

For live sub-satellite position, see the globe view (requires WebGL).

§ Visibility from observer

Set your observer location to see the next 7 days of passes ≥ 10°. The values pass through the URL so the page stays shareable.

No JS? Fill the form by hand. The geolocation button needs JavaScript.